Location: GMARS
(34.2910°N, 116.3838°W)
Time: 16:37:45
(UTC-08:00)

Daily predictions for brighter satellites

Satellite Brightness Start Highest point End
(mag) Time Altitude Azimuth Time Altitude Azimuth Time Altitude Azimuth
Cosmos 407 Rocket 4.2 17:48:41 10° SSE 17:53:16 33° E 17:57:56 10° NE
Cosmos 1992 Rocket 4.4 17:49:53 10° N 17:54:50 42° ENE 17:59:45 10° SE
ERBS 3.0 17:52:18 10° NNW 17:55:31 35° NE 17:58:43 10° ESE
Okean 2 Rocket 3.1 17:51:49 10° S 17:56:13 61° E 18:00:36 10° NNE
COSMO-SKYMED 1 2.8 17:54:54 10° N 17:59:13 75° WNW 18:03:32 10° SSW
ATLAS CENTAUR R/B 4.4 17:58:46 10° WNW 18:00:20 11° NW 18:01:52 10° NNW
FREGAT/IRIS 4.0 17:58:11 10° ESE 18:00:32 21° ENE 18:02:56 10° NNE
OAO 3 Copernicus 4.4 17:58:41 10° W 18:03:46 89° NNW 18:08:51 10° E
Cosmos 1697 Rocket 4.1 18:05:01 10° NW 18:10:20 44° WSW 18:15:38 10° S
Cosmos 2360 Rocket 3.8 18:09:19 10° NNE 18:12:11 14° NE 18:14:35 11° E
Cosmos 1980 Rocket 2.5 18:07:50 10° NNW 18:13:31 74° WSW 18:19:10 10° SSE
Cosmos 2151 Rocket 4.0 18:10:13 10° SSE 18:14:26 42° E 18:18:42 10° NNE
METEOR-M 4.2 18:09:34 10° SSE 18:14:48 60° ENE 18:20:03 10° N
Cosmos 1190 Rocket 3.9 18:11:41 10° S 18:16:49 69° ESE 18:21:59 10° NNE
Cosmos 1745 Rocket 4.1 18:11:05 10° S 18:17:25 86° W 18:23:45 10° N
SJ-6B 3.2 18:13:46 10° SE 18:17:36 42° ENE 18:21:24 10° N
NOAA 12 4.1 18:13:16 10° SSE 18:18:31 67° ENE 18:23:48 10° N
ALOS 3.0 18:15:23 10° SE 18:19:29 31° ENE 18:23:36 10° N
SL-8 R/B 3.8 18:15:48 10° NW 18:20:34 60° NE 18:25:07 11° ESE
Meteor 1-18 Rocket 4.2 18:17:20 10° N 18:22:51 65° E 18:28:24 10° SSE
BREEZE-M DEB (TANK) 4.1 18:15:44 10° NW 18:23:53 40° NNE 18:26:10 17° E
Cosmos 1140 Rocket 4.4 18:19:52 10° SSE 18:23:58 25° E 18:28:05 10° NE
TSX-5 4.1 18:22:37 10° S 18:25:33 29° ESE 18:27:26 16° ENE
GEOS 3 Rocket 3.8 18:20:35 10° NNE 18:25:49 78° NW 18:31:06 10° SW
Okean 1 Rocket 4.3 18:23:32 10° SE 18:26:48 20° E 18:30:05 10° NE
PSLV R/B 3.3 18:23:44 10° WNW 18:26:51 67° SSW 18:29:25 14° SE
Spot 2 Rocket 4.2 18:24:34 10° SE 18:28:57 31° ENE 18:33:22 10° N
Cosmos 1461 4.0 18:28:22 10° N 18:31:42 24° NE 18:33:03 20° E
Cosmos 1386 Rocket 4.5 18:25:51 10° S 18:32:00 87° W 18:38:06 10° N
Gbstr 26 Del rocket 3.9 18:29:05 10° S 18:32:11 23° SE 18:33:19 20° ESE
FengYun 1-2 T 4.5 18:27:16 10° SE 18:32:25 45° ENE 18:37:37 10° N
ASTRO E2 3.3 18:30:51 10° W 18:34:46 50° S 18:37:26 19° ESE
Cosmos 2292 Rocket 3.9 18:30:59 10° S 18:35:16 63° E 18:41:06 10° NNE
Cosmos 1633 3.2 18:32:15 10° SSE 18:35:36 34° E 18:38:58 10° NNE
HJ-1C 3.7 18:33:43 10° SSE 18:36:55 42° ENE 18:40:07 10° N
SL-16 R/B 2.1 18:38:18 10° NNW 18:43:57 68° ENE 18:49:34 10° SSE
Cosmos 1954 Rocket 4.0 18:40:32 10° S 18:45:34 57° ESE 18:50:41 10° NNE
Okean 1 3.2 18:46:42 10° N 18:50:45 83° E 18:54:48 10° S
Cosmos 44 Rocket 3.8 18:47:15 10° NW 18:51:53 57° WSW 18:56:25 10° SSE
Cosmos 1340 3.0 18:48:42 10° N 18:52:19 41° E 18:53:13 35° ESE
Meteor 1-13 Rocket 4.4 18:47:16 10° N 18:52:38 47° E 18:58:01 10° SSE
Tiangong 2 2.6 18:52:23 10° NW 18:54:54 23° NNE 18:54:54 23° NNE
CZ-2D R/B 4.1 18:57:59 31° NE 18:57:59 31° NE 19:00:33 10° N
CENTAUR R/B 3.7 18:49:36 10° NW 18:57:29 59° WSW 19:05:39 10° SSE
Cosmos 2322 Rocket 2.2 18:57:39 10° NNW 19:03:16 79° WSW 19:08:52 10° SSE
Resurs 01 Rocket 1.5 19:00:58 10° SSE 19:05:22 80° ENE 19:09:48 10° N
Cosmos 1536 Rocket 3.7 19:02:31 10° N 19:06:59 78° W 19:11:26 10° S
SL-19 R/B 4.2 19:04:11 10° SSE 19:09:45 86° ENE 19:15:35 10° NNW
Helios 1B rocket 2.4 19:09:41 56° E 19:09:48 56° E 19:13:52 10° S
H-2A R/B 2.4 19:09:04 45° SSE 19:10:07 78° ENE 19:13:50 10° N
Cosmos 1818 4.2 19:04:57 10° SW 19:10:16 57° WNW 19:15:39 10° NNE
Cosmos 2322 4.1 19:07:15 10° N 19:12:34 39° ENE 19:12:40 39° ENE
Cosmos 44 4.1 19:15:56 10° NW 19:20:06 43° WSW 19:23:24 14° S
Meteor 2-4 Rocket 3.7 19:17:00 10° N 19:22:25 53° ENE 19:22:25 53° ENE
Meteor 1-11 Rocket 3.8 19:16:52 10° S 19:22:35 81° W 19:28:27 10° N
Cosmos 1741 Rocket 4.0 19:17:48 10° S 19:22:39 57° ESE 19:22:39 57° ESE
FENGYUN 3A 4.2 19:17:55 10° S 19:23:12 58° W 19:28:34 10° NNW
COSMOS 2428 4.3 19:18:39 10° N 19:21:04 20° NNE 19:21:04 20° NNE
Cosmos 2327 Rocket 4.4 19:18:13 10° SSE 19:24:12 56° E 19:30:19 10° NNE
Cosmos 2181 Rocket 4.0 19:18:27 10° N 19:24:42 83° W 19:31:01 10° S
DNEPR-1 R/B 3.8 19:21:50 10° NW 19:26:00 64° WSW 19:27:00 47° S
DELTA 2 R/B (1) 3.8 19:21:14 10° WNW 19:26:45 55° N 19:27:32 51° NE
Resurs 1-3 4.1 19:28:26 10° S 19:32:45 58° W 19:37:05 10° NNW
CZ-3 Stage 3 4.4 19:29:59 10° WSW 19:34:39 65° SSE 19:40:32 37° E
SL-08 ROCKET BODY 4.3 19:30:35 10° S 19:36:42 88° E 19:42:55 10° N
Cosmos 2184 Rocket 3.9 19:35:18 10° S 19:41:39 83° E 19:47:58 10° N
Cosmos 2074 Rocket 3.9 19:36:53 10° S 19:43:06 89° ESE 19:49:25 10° N
Cosmos 2219 3.5 19:39:57 10° SSW 19:44:22 54° S 19:44:22 54° S
Cosmos 2360 Rocket 2.3 19:51:08 10° NNW 19:56:26 72° WNW 19:56:26 72° WNW
Cosmos 2219 Rocket 4.5 19:56:24 10° N 19:56:49 12° N 19:56:49 12° N
ATLAS CENTAUR R/B 4.3 19:58:23 10° SW 20:00:09 18° SW 20:00:09 18° SW
